Weather History for Carmi, IL

Change the Weather History Date:

Friday, October 28, 2011

  Actual Average (KEVV) Record (KEVV)
Temperature  
Mean Temperature 46 °F 54 °F  
Max Temperature 55 °F 65 °F 85 °F (1927)
Min Temperature 37 °F 42 °F 24 °F (1976)
Degree Days  
Heating Degree Days 19 11  
Month to date heating degree days 221  
Since 1 July heating degree days 268  
Cooling Degree Days 0 0  
Month to date cooling degree days 28  
Year to date cooling degree days 1394  
Moisture  
Dew Point 40 °F    
Average Humidity 77    
Maximum Humidity 100    
Minimum Humidity 44    
Precipitation  
Precipitation 0.00 in 0.11 in 1.16 in (1984)
Month to date precipitation 2.91  
Year to date precipitation 36.88  
Snow  
Snow 0.00 in 0.00 in - ()
Month to date snowfall 0.2  
Since 1 July snowfall 0.2  
Since 1 September snowfall 0.2  
Snow Depth -    
Sea Level Pressure  
Sea Level Pressure 30.15 in    
Wind  
Wind Speed 3 mph (NNE)    
Max Wind Speed 9 mph    
Max Gust Speed -    
Visibility 9 miles    
Events      
T = Trace of Precipitation, MM = Missing Value Source: NWS Daily Summary

Daily Weather History Graph

Daily Weather History Graph

Search for Another Location

Airport:

Trip Planner

Search our weather history database for the weather conditions in past years. The results will help you decide how hot, cold, wet, or windy it might be!

Date:

Astronomy

Oct. 28, 2011 Rise Set
Actual Time 7:13 AM CDT 5:58 PM CDT
Civil Twilight 6:46 AM CDT 6:25 PM CDT
Nautical Twilight 6:15 AM CDT 6:56 PM CDT
Astronomical Twilight 5:45 AM CDT 7:26 PM CDT
Moon 9:26 AM CDT (10/28) 7:23 PM CDT (10/28)
Length of Visible Light 11h 38m
Length of Day
10h 44m
Waxing Crescent, 5% of the Moon is Illuminated
Oct 28
Waxing Crescent
Nov 2
First Quarter
Nov 10
Full
Nov 18
Last Quarter
Nov 25
New

Hourly Weather History & Observations

Time (CDT) Temp. Windchill Dew Point Humidity Pressure Visibility Wind Dir Wind Speed Gust Speed Precip Events Conditions
12:15 AM 37.4 °F 34.9 °F 35.6 °F 93% 30.13 in 10.0 mi NW 3.5 mph - N/A   Clear
12:35 AM 39.2 °F - 37.4 °F 93% 30.14 in 10.0 mi Calm Calm - N/A   Clear
12:55 AM 41.0 °F - 39.2 °F 93% 30.13 in 10.0 mi Calm Calm - N/A   Clear
1:15 AM 41.0 °F - 41.0 °F 100% 30.13 in 10.0 mi Calm Calm - N/A   Clear
1:35 AM 42.8 °F 41.1 °F 41.0 °F 93% 30.13 in 10.0 mi NNE 3.5 mph - N/A   Clear
1:55 AM 42.8 °F - 41.0 °F 93% 30.13 in 10.0 mi Calm Calm - N/A   Clear
2:15 AM 42.8 °F 41.1 °F 41.0 °F 93% 30.13 in 10.0 mi North 3.5 mph - N/A   Clear
2:35 AM 42.8 °F - 41.0 °F 93% 30.13 in 7.0 mi Calm Calm - N/A   Mostly Cloudy
2:55 AM 42.8 °F - 41.0 °F 93% 30.14 in 10.0 mi Calm Calm - N/A   Overcast
3:15 AM 42.8 °F - 41.0 °F 93% 30.14 in 10.0 mi Calm Calm - N/A   Scattered Clouds
3:35 AM 42.8 °F - 42.8 °F 100% 30.14 in 10.0 mi Calm Calm - N/A   Clear
3:55 AM 42.8 °F 41.1 °F 42.8 °F 100% 30.13 in 10.0 mi North 3.5 mph - N/A   Clear
4:15 AM 42.8 °F 40.1 °F 41.0 °F 93% 30.13 in 10.0 mi North 4.6 mph - N/A   Scattered Clouds
4:35 AM 42.8 °F 41.1 °F 41.0 °F 93% 30.14 in 10.0 mi North 3.5 mph - N/A   Scattered Clouds
5:15 AM 42.8 °F 41.1 °F 41.0 °F 93% 30.17 in 10.0 mi North 3.5 mph - N/A   Mostly Cloudy
5:35 AM 44.6 °F - 42.8 °F 93% 30.18 in 10.0 mi Calm Calm - N/A   Scattered Clouds
5:55 AM 44.6 °F - 41.0 °F 87% 30.17 in 10.0 mi Calm Calm - N/A   Clear
6:15 AM 42.8 °F 40.1 °F 41.0 °F 93% 30.17 in 10.0 mi NNE 4.6 mph - N/A   Clear
6:35 AM 44.6 °F - 42.8 °F 93% 30.18 in 10.0 mi Calm Calm - N/A   Clear
6:55 AM 42.8 °F 40.1 °F 42.8 °F 100% 30.18 in 10.0 mi NNE 4.6 mph - N/A   Clear
7:15 AM 42.8 °F 39.3 °F 42.8 °F 100% 30.16 in 10.0 mi North 5.8 mph - N/A   Clear
7:35 AM 42.8 °F 40.1 °F 41.0 °F 93% 30.18 in 10.0 mi North 4.6 mph - N/A   Clear
7:55 AM 42.8 °F 39.3 °F 42.8 °F 100% 30.18 in 7.0 mi NNE 5.8 mph - N/A   Clear
8:15 AM 44.6 °F 42.2 °F 42.8 °F 93% 30.18 in 7.0 mi North 4.6 mph - N/A   Clear
8:35 AM 44.6 °F 41.4 °F 42.8 °F 93% 30.18 in 10.0 mi North 5.8 mph - N/A   Clear
8:55 AM 44.6 °F 41.4 °F 42.8 °F 93% 30.18 in 10.0 mi North 5.8 mph - N/A   Clear
9:15 AM 46.4 °F 44.3 °F 42.8 °F 87% 30.19 in 10.0 mi NNE 4.6 mph - N/A   Clear
9:35 AM 46.4 °F 44.3 °F 42.8 °F 87% 30.20 in 10.0 mi NNE 4.6 mph - N/A   Clear
10:15 AM 50.0 °F - 42.8 °F 76% 30.20 in 10.0 mi NNE 4.6 mph - N/A   Clear
10:35 AM 50.0 °F - 42.8 °F 76% 30.20 in 10.0 mi NNE 5.8 mph - N/A   Clear
10:55 AM 51.8 °F - 41.0 °F 67% 30.20 in 10.0 mi NNE 5.8 mph - N/A   Clear
11:15 AM 51.8 °F - 41.0 °F 67% 30.20 in 10.0 mi NE 5.8 mph - N/A   Clear
11:35 AM 51.8 °F - 39.2 °F 62% 30.19 in 10.0 mi NNE 5.8 mph - N/A   Clear
12:15 PM 53.6 °F - 37.4 °F 54% 30.18 in 10.0 mi ENE 9.2 mph - N/A   Clear
12:35 PM 53.6 °F - 37.4 °F 54% 30.18 in 10.0 mi NNE 4.6 mph - N/A   Scattered Clouds
12:55 PM 53.6 °F - 37.4 °F 54% 30.16 in 10.0 mi North 8.1 mph - N/A   Scattered Clouds
1:15 PM 55.4 °F - 35.6 °F 47% 30.15 in 10.0 mi ENE 5.8 mph - N/A   Scattered Clouds
1:35 PM 55.4 °F - 33.8 °F 44% 30.15 in 10.0 mi NNE 4.6 mph - N/A   Mostly Cloudy
1:55 PM 55.4 °F - 35.6 °F 47% 30.14 in 10.0 mi NNE 9.2 mph - N/A   Mostly Cloudy
2:15 PM 55.4 °F - 35.6 °F 47% 30.13 in 10.0 mi NE 4.6 mph - N/A   Mostly Cloudy
2:35 PM 55.4 °F - 35.6 °F 47% 30.13 in 10.0 mi NE 4.6 mph - N/A   Scattered Clouds
2:55 PM 55.4 °F - 35.6 °F 47% 30.13 in 10.0 mi NNE 6.9 mph - N/A   Scattered Clouds
3:15 PM 55.4 °F - 35.6 °F 47% 30.12 in 10.0 mi North 4.6 mph - N/A   Scattered Clouds
3:35 PM 55.4 °F - 35.6 °F 47% 30.11 in 10.0 mi NNE 6.9 mph - N/A   Clear
3:55 PM 55.4 °F - 33.8 °F 44% 30.11 in 10.0 mi NNW 6.9 mph - N/A   Scattered Clouds
4:15 PM 55.4 °F - 35.6 °F 47% 30.11 in 10.0 mi North 5.8 mph - N/A   Scattered Clouds
4:35 PM 55.4 °F - 35.6 °F 47% 30.11 in 10.0 mi NNE 3.5 mph - N/A   Clear
4:55 PM 55.4 °F - 33.8 °F 44% 30.11 in 10.0 mi NNE 3.5 mph - N/A   Scattered Clouds
5:15 PM 55.4 °F - 33.8 °F 44% 30.11 in 10.0 mi Calm Calm - N/A   Scattered Clouds
5:35 PM 51.8 °F - 37.4 °F 58% 30.12 in 10.0 mi NNE 3.5 mph - N/A   Clear
5:55 PM 51.8 °F - 35.6 °F 54% 30.12 in 0.5 mi Calm Calm - N/A   Haze
6:15 PM 50.0 °F - 37.4 °F 62% 30.12 in 2.5 mi Calm Calm - N/A   Haze
6:35 PM 46.4 °F - 39.2 °F 76% 30.13 in 10.0 mi Calm Calm - N/A   Mostly Cloudy
6:55 PM 46.4 °F - 41.0 °F 81% 30.13 in 10.0 mi Calm Calm - N/A   Mostly Cloudy
7:15 PM 46.4 °F - 41.0 °F 81% 30.13 in 10.0 mi Calm Calm - N/A   Overcast
7:35 PM 44.6 °F 43.1 °F 41.0 °F 87% 30.14 in 10.0 mi WSW 3.5 mph - N/A   Overcast
7:55 PM 44.6 °F - 41.0 °F 87% 30.13 in 10.0 mi Calm Calm - N/A   Overcast
8:15 PM 42.8 °F - 41.0 °F 93% 30.14 in 10.0 mi Calm Calm - N/A   Mostly Cloudy
8:35 PM 44.6 °F - 41.0 °F 87% 30.14 in 3.0 mi Calm Calm - N/A   Mostly Cloudy
9:15 PM 42.8 °F - 41.0 °F 93% 30.14 in 5.0 mi Calm Calm - N/A   Scattered Clouds
9:35 PM 42.8 °F - 41.0 °F 93% 30.14 in 10.0 mi Calm Calm - N/A   Scattered Clouds
9:55 PM 41.0 °F - 37.4 °F 87% 30.14 in 10.0 mi Calm Calm - N/A   Scattered Clouds
10:15 PM 39.2 °F 37.0 °F 37.4 °F 93% 30.14 in 10.0 mi SW 3.5 mph - N/A   Clear
10:35 PM 37.4 °F 34.9 °F 37.4 °F 100% 30.14 in 10.0 mi SW 3.5 mph - N/A   Clear
10:55 PM 39.2 °F - 37.4 °F 93% 30.13 in 10.0 mi Calm Calm - N/A   Clear
11:15 PM 39.2 °F - 37.4 °F 93% 30.13 in 10.0 mi Calm Calm - N/A   Clear
11:35 PM 39.2 °F - 37.4 °F 93% 30.13 in 10.0 mi Calm Calm - N/A   Clear
11:55 PM 39.2 °F - 37.4 °F 93% 30.12 in 10.0 mi Calm Calm - N/A   Clear